FW9784 Weather Reports


Display with metric or nautical units.
time (UTC)temp
F
wind
direction
speed
MPH
gust
MPH
rain 1hr
in
rain 24hr
in
rain mn
in
humidity
%
barometer
mb
20260506134637 55 111 0.0 0.0 0.00 0.00 0.00 92 1017.6
20260506134137 54 174 0.0 0.0 0.00 0.00 0.00 93 1017.7
20260506133637 54 174 0.0 0.0 0.00 0.00 0.00 93 1017.6
20260506133328 53 174 0.0 0.0 0.00 0.00 0.00 92 1017.5
20260506133239 53 174 0.0 0.0 0.00 0.00 0.00 93 1017.7
20260506132135 53 174 0.0 0.0 0.00 0.00 0.00 92 1017.4
20260506131634 53 174 0.0 0.0 0.00 0.00 0.00 92 1017.4
20260506131136 53 174 0.0 0.0 0.00 0.00 0.00 92 1017.4
20260506130634 53 174 0.0 0.0 0.00 0.00 0.00 92 1017.1
20260506130136 53 174 0.0 0.0 0.00 0.00 0.00 92 1017.1
20260506130022 53 174 0.0 0.0 0.00 0.00 0.00 92 1016.9
20260506125139 53 174 0.0 0.0 0.00 0.00 0.00 92 1017.1
20260506124631 53 174 0.0 0.0 0.00 0.00 0.00 92 1017.0
20260506124144 53 174 0.0 0.0 0.00 0.00 0.00 92 1016.9
20260506123631 53 174 0.0 0.0 0.00 0.00 0.00 92 1016.8
20260506123138 53 174 0.0 0.0 0.00 0.00 0.00 91 1016.8
20260506122630 53 174 0.0 0.0 0.00 0.00 0.00 91 1016.8
20260506122137 53 174 0.0 0.0 0.00 0.00 0.00 91 1016.8
20260506121631 53 174 0.0 0.0 0.00 0.00 0.00 91 1016.7
20260506121130 53 174 0.0 0.0 0.00 0.00 0.00 91 1016.8
20260506120624 53 174 0.0 0.0 0.00 0.00 0.00 91 1016.8
20260506120344 53 174 0.0 0.0 0.00 0.00 0.00 91 1016.7
20260506120236 53 174 0.0 0.0 0.00 0.00 0.00 91 1016.7
20260506115421 53 174 0.0 0.0 0.00 0.00 0.00 91 1016.7
20260506114621 53 174 0.0 0.0 0.00 0.00 0.00 91 1016.7
20260506114119 53 174 0.0 0.0 0.00 0.00 0.00 91 1016.7
20260506113617 53 174 0.0 0.0 0.00 0.00 0.00 91 1016.5
20260506113508 53 173 0.0 0.0 0.00 0.00 0.00 91 1016.6
20260506112614 53 174 0.0 0.0 0.00 0.00 0.00 91 1016.5
20260506112115 53 174 0.0 0.0 0.00 0.00 0.00 91 1016.5
20260506111613 53 174 0.0 0.0 0.00 0.00 0.00 91 1016.6
20260506111112 53 174 0.0 0.0 0.00 0.00 0.00 91 1016.5
20260506110614 53 174 0.0 0.0 0.00 0.00 0.00 91 1016.5
20260506110112 53 174 0.0 0.0 0.00 0.00 0.00 90 1016.5
20260506105607 53 174 0.0 0.0 0.00 0.00 0.00 90 1016.5
20260506105101 54 174 0.0 0.0 0.00 0.00 0.00 90 1016.5
20260506104602 54 174 0.0 0.0 0.00 0.00 0.00 90 1016.6
20260506104100 54 174 0.0 0.0 0.00 0.00 0.00 90 1016.6
20260506103958 54 174 0.0 0.0 0.00 0.00 0.00 90 1016.4
20260506103441 54 174 0.0 0.0 0.00 0.00 0.00 90 1016.4
20260506102552 54 174 0.0 0.0 0.00 0.00 0.00 90 1016.4
20260506102506 54 174 0.0 0.0 0.00 0.00 0.00 90 1016.4
20260506101552 54 174 0.0 0.0 0.00 0.00 0.00 90 1016.4
20260506101048 54 174 0.0 0.0 0.00 0.00 0.00 90 1016.4
20260506100935 55 174 0.0 0.0 0.00 0.00 0.00 90 1016.5
20260506100046 55 174 0.0 0.0 0.00 0.00 0.00 90 1016.4
20260506095547 54 174 0.0 0.0 0.00 0.00 0.00 89 1016.5
20260506095508 55 174 0.0 0.0 0.00 0.00 0.00 89 1016.5
20260506094544 55 174 0.0 0.0 0.00 0.00 0.00 89 1016.5
20260506094045 55 174 0.0 0.0 0.00 0.00 0.00 89 1016.6
20260506093545 55 174 0.0 0.0 0.00 0.00 0.00 89 1016.6
20260506093048 55 174 0.0 0.0 0.00 0.00 0.00 89 1016.5
20260506092540 55 174 0.0 0.0 0.00 0.00 0.00 89 1016.5
20260506092204 55 174 0.0 0.0 0.00 0.00 0.00 89 1016.6
20260506092145 55 174 0.0 0.0 0.00 0.00 0.00 89 1016.6
20260506091043 55 174 0.0 0.0 0.00 0.00 0.00 89 1016.6
20260506090536 55 174 0.0 0.0 0.00 0.00 0.00 89 1016.7
20260506090038 55 174 0.0 0.0 0.00 0.00 0.00 88 1016.8
20260506085535 55 174 0.0 0.0 0.00 0.00 0.00 88 1016.8
20260506085333 55 174 0.0 0.0 0.00 0.00 0.00 88 1016.9
20260506084539 55 174 0.0 0.0 0.00 0.00 0.00 88 1016.9
20260506084032 56 174 0.0 0.0 0.00 0.00 0.00 87 1016.8
20260506083530 56 174 0.0 0.0 0.00 0.00 0.00 87 1016.9
20260506083032 56 174 0.0 0.0 0.00 0.00 0.00 87 1017.0
20260506082530 56 174 0.0 0.0 0.00 0.00 0.00 87 1017.0
20260506082032 56 174 0.0 0.0 0.00 0.00 0.00 87 1017.0
20260506081529 56 174 0.0 0.0 0.00 0.00 0.00 86 1017.0
20260506081031 56 174 0.0 0.0 0.00 0.00 0.00 86 1017.0
20260506080530 57 174 0.0 0.0 0.00 0.00 0.00 86 1017.0
20260506073022 58 174 0.0 0.0 0.00 0.00 0.00 87 1017.1
20260506072526 58 174 0.0 0.0 0.00 0.00 0.00 87 1017.0
20260506072021 58 174 0.0 0.0 0.00 0.00 0.00 87 1017.0
20260506071519 58 174 0.0 1.0 0.00 0.00 0.00 87 1017.0
20260506071021 58 174 0.0 3.0 0.00 0.00 0.00 87 1016.9
20260506070719 58 159 0.0 4.0 0.00 0.00 0.00 87 1016.9
20260506070624 58 174 0.0 4.0 0.00 0.00 0.00 87 1016.9
20260506062509 58 269 0.0 0.0 0.00 0.00 0.00 84 1016.6
20260506062004 58 269 0.0 0.0 0.00 0.00 0.00 84 1016.6
20260506061511 58 269 0.0 0.0 0.00 0.00 0.00 83 1016.5
20260506061005 58 269 0.0 0.0 0.00 0.00 0.00 83 1016.6
20260506060501 58 269 0.0 0.0 0.00 0.00 0.00 83 1016.5
20260506060405 58 269 0.0 0.0 0.00 0.00 0.00 83 1016.5
20260506050929 60 269 1.0 2.0 0.00 0.00 0.00 80 1016.3
20260506050752 60 269 1.0 2.0 0.00 0.00 0.00 80 1016.2
20260506044931 60 275 1.0 3.0 0.00 0.00 0.00 79 1016.0
20260506044433 60 267 0.0 3.0 0.00 0.00 0.00 79 1015.8
20260506043929 60 250 1.0 4.0 0.00 0.00 0.00 78 1015.8
20260506043430 60 250 1.0 4.0 0.00 0.00 0.00 78 1015.7
20260506042931 60 222 1.0 4.0 0.00 0.00 0.00 78 1015.5
20260506042429 60 229 1.0 4.0 0.00 0.00 0.00 79 1015.6
20260506041935 60 238 0.0 3.0 0.00 0.00 0.00 79 1015.6
20260506041431 60 200 0.0 2.0 0.00 0.00 0.00 80 1015.5
20260506040930 60 236 0.0 0.0 0.00 0.00 0.00 80 1015.5
20260506040429 60 236 0.0 3.0 0.00 0.00 0.00 81 1015.5
20260506035931 61 236 1.0 3.0 0.00 0.00 0.00 81 1015.5
20260506035430 61 247 1.0 3.0 0.00 0.00 0.00 80 1015.3
20260506034933 61 247 0.0 2.0 0.00 0.00 0.00 81 1015.3
20260506034429 61 247 0.0 2.0 0.00 0.00 0.00 81 1015.2
20260506033931 61 247 1.0 3.0 0.00 0.00 0.00 82 1015.1
20260506033430 61 247 0.0 3.0 0.00 0.00 0.00 82 1015.0
20260506032932 61 247 0.0 2.0 0.00 0.00 0.00 82 1015.0
20260506032429 61 223 1.0 5.0 0.00 0.00 0.00 82 1015.0
20260506031929 61 223 1.0 5.0 0.00 0.00 0.00 81 1014.9
20260506031433 61 258 1.0 3.0 0.00 0.00 0.00 81 1014.7
20260506030929 61 243 1.0 3.0 0.00 0.00 0.00 81 1014.7
20260506030714 61 233 2.0 4.0 0.00 0.00 0.00 81 1014.6
20260506030608 61 238 2.0 4.0 0.00 0.00 0.00 81 1014.7
20260506025440 61 267 1.0 3.0 0.00 0.00 0.00 81 1014.5
20260506024929 61 315 1.0 3.0 0.00 0.00 0.00 81 1014.6
20260506024432 61 273 1.0 4.0 0.00 0.00 0.00 80 1014.6
20260506023929 62 262 1.0 4.0 0.00 0.00 0.00 80 1014.4
20260506023435 62 233 1.0 3.0 0.00 0.00 0.00 79 1014.2
20260506023304 62 242 2.0 4.0 0.00 0.00 0.00 79 1014.2
20260506022430 62 267 2.0 6.0 0.00 0.00 0.00 77 1014.2
20260506021929 62 236 2.0 6.0 0.00 0.00 0.00 77 1014.1
20260506021429 62 0 2.0 5.0 0.00 0.00 0.00 76 1014.1
20260506020929 63 0 2.0 6.0 0.00 0.00 0.00 75 1014.0
20260506020801 63 236 2.0 6.0 0.00 0.00 0.00 73 1014.0
20260506020339 64 230 2.0 5.0 0.00 0.00 0.00 71 1013.9
20260506020332 63 213 2.0 5.0 0.00 0.00 0.00 73 1014.0
20260506020327 63 0 2.0 5.0 0.00 0.00 0.00 72 1013.9
20260506014450 63 268 2.0 7.0 0.00 0.00 0.00 70 1013.9
20260506014440 64 209 2.0 5.0 0.00 0.00 0.00 71 1013.8
20260506014048 63 199 2.0 4.0 0.00 0.00 0.00 70 1013.8
20260506012921 63 195 2.0 7.0 0.00 0.00 0.00 70 1013.8
20260506012422 63 254 2.0 5.0 0.00 0.00 0.00 70 1013.9
20260506011920 63 0 3.0 7.0 0.00 0.00 0.00 69 1014.0
20260506011420 63 0 3.0 7.0 0.00 0.00 0.00 68 1013.9
20260506010918 63 263 2.0 6.0 0.00 0.00 0.00 69 1014.0
20260506010416 63 0 2.0 4.0 0.00 0.00 0.00 71 1013.9
20260506005919 63 268 3.0 8.0 0.00 0.00 0.00 70 1013.8
20260506005417 63 271 3.0 8.0 0.00 0.00 0.00 70 1013.8
20260506004920 63 257 3.0 8.0 0.00 0.00 0.00 70 1013.8
20260506004416 64 214 2.0 8.0 0.00 0.00 0.00 69 1013.8
20260506003920 64 224 2.0 7.0 0.00 0.00 0.00 70 1013.7
20260506003736 64 0 3.0 7.0 0.00 0.00 0.00 70 1013.7
20260506002913 64 242 3.0 7.0 0.00 0.00 0.00 70 1013.7
20260506002414 64 242 3.0 10.0 0.00 0.00 0.00 69 1013.7
20260506001911 64 248 3.0 10.0 0.00 0.00 0.00 68 1013.7
20260506001410 64 223 3.0 9.0 0.00 0.00 0.00 69 1013.6
20260506000910 64 257 4.0 9.0 0.00 0.00 0.00 68 1013.7
20260506000408 65 250 3.0 12.0 0.00 0.00 0.00 68 1013.7
20260505235912 65 0 3.0 12.0 0.00 0.00 0.00 69 1013.7
20260505235407 65 253 4.0 10.0 0.00 0.00 0.00 68 1013.7
20260505234917 65 229 4.0 10.0 0.00 0.00 0.00 69 1013.8
20260505234421 65 0 4.0 8.0 0.00 0.00 0.00 69 1013.7
20260505233917 65 213 4.0 10.0 0.00 0.00 0.00 70 1013.8
20260505233408 64 281 4.0 10.0 0.00 0.00 0.00 71 1013.8
20260505232911 63 242 4.0 9.0 0.00 0.00 0.00 72 1013.8
20260505232407 63 255 5.0 11.0 0.00 0.00 0.00 72 1013.7
20260505231905 63 263 5.0 11.0 0.00 0.00 0.00 70 1013.8
20260505231405 63 231 4.0 9.0 0.00 0.00 0.00 70 1013.8
20260505230904 63 0 4.0 9.0 0.00 0.00 0.00 69 1013.9
20260505230404 64 200 4.0 8.0 0.00 0.00 0.00 69 1014.0
20260505225902 64 249 3.0 11.0 0.00 0.00 0.00 68 1013.9
20260505225402 65 232 4.0 11.0 0.00 0.00 0.00 68 1014.0
20260505224902 64 269 5.0 12.0 0.00 0.00 0.00 68 1014.0
20260505224403 65 199 4.0 12.0 0.00 0.00 0.00 67 1014.0
20260505223902 65 0 5.0 12.0 0.00 0.00 0.00 68 1013.9
20260505223404 65 0 5.0 12.0 0.00 0.00 0.00 67 1014.1
20260505222905 65 229 5.0 14.0 0.00 0.00 0.00 67 1014.1
20260505222402 65 211 5.0 14.0 0.00 0.00 0.00 66 1014.1
20260505221902 65 235 5.0 11.0 0.00 0.00 0.00 66 1014.1
20260505221402 66 286 5.0 12.0 0.00 0.00 0.00 65 1014.2
20260505220902 66 240 5.0 12.0 0.00 0.00 0.00 66 1014.1
20260505220401 66 242 5.0 11.0 0.00 0.00 0.00 66 1014.1
20260505215904 65 219 5.0 11.0 0.00 0.00 0.00 66 1014.2
20260505215401 65 226 4.0 11.0 0.00 0.00 0.00 68 1014.3
20260505214902 65 218 5.0 12.0 0.00 0.00 0.00 67 1014.2
20260505214402 65 0 6.0 12.0 0.00 0.00 0.00 65 1014.3
20260505213900 66 193 6.0 14.0 0.00 0.00 0.00 65 1014.3
20260505213400 65 189 6.0 14.0 0.00 0.00 0.00 66 1014.3
20260505213209 66 253 6.0 12.0 0.00 0.00 0.00 67 1014.4
20260505212402 65 284 7.0 14.0 0.00 0.00 0.00 67 1014.4
20260505211901 65 294 6.0 14.0 0.00 0.00 0.00 66 1014.4
20260505211354 65 234 6.0 13.0 0.00 0.00 0.00 65 1014.5
20260505210852 65 0 6.0 11.0 0.00 0.00 0.00 67 1014.4
20260505210711 65 240 5.0 11.0 0.00 0.00 0.00 66 1014.4
20260505205842 65 247 5.0 10.0 0.00 0.00 0.00 67 1014.6
20260505205342 64 285 6.0 13.0 0.00 0.00 0.00 68 1014.6
20260505205136 64 182 6.0 13.0 0.00 0.00 0.00 69 1014.6
20260505204343 64 0 6.0 14.0 0.00 0.00 0.00 70 1014.6
20260505203842 64 237 6.0 14.0 0.00 0.00 0.00 71 1014.5
20260505203342 65 284 6.0 14.0 0.00 0.00 0.00 70 1014.4
20260505202842 64 0 6.0 14.0 0.00 0.00 0.00 69 1014.3
20260505202341 64 248 5.0 11.0 0.00 0.00 0.00 71 1014.4
20260505201842 64 0 5.0 11.0 0.00 0.00 0.00 71 1014.3
20260505201341 63 204 7.0 14.0 0.00 0.00 0.00 70 1014.4
20260505200840 64 0 6.0 14.0 0.00 0.00 0.00 69 1014.4
20260505200658 64 254 6.0 14.0 0.00 0.00 0.00 69 1014.4
20260505195838 65 0 6.0 14.0 0.00 0.00 0.00 68 1014.5
20260505195338 65 188 6.0 13.0 0.00 0.00 0.00 69 1014.5
20260505194837 64 254 6.0 13.0 0.00 0.00 0.00 68 1014.6
20260505194338 65 194 5.0 12.0 0.00 0.00 0.00 67 1014.6
20260505193838 65 242 5.0 11.0 0.00 0.00 0.00 67 1014.6
20260505193338 65 276 6.0 13.0 0.00 0.00 0.00 66 1014.7
20260505193026 64 207 5.0 11.0 0.00 0.00 0.00 70 1014.6
20260505192950 65 0 5.0 13.0 0.00 0.00 0.00 67 1014.7
20260505191838 64 263 6.0 13.0 0.00 0.00 0.00 67 1014.7
20260505191342 64 286 5.0 13.0 0.00 0.00 0.00 70 1014.8
20260505190831 65 0 5.0 12.0 0.00 0.00 0.00 68 1014.8
20260505190329 65 212 5.0 10.0 0.00 0.00 0.00 69 1014.8
20260505185835 65 0 5.0 10.0 0.00 0.00 0.00 70 1014.8
20260505185331 65 257 5.0 10.0 0.00 0.00 0.00 69 1014.8
20260505184831 64 261 5.0 11.0 0.00 0.00 0.00 72 1014.7
20260505184329 64 209 5.0 11.0 0.00 0.00 0.00 71 1014.8
20260505183830 64 201 5.0 11.0 0.00 0.00 0.00 71 1014.8
20260505183330 64 229 5.0 11.0 0.00 0.00 0.00 71 1014.8
20260505182830 64 259 6.0 14.0 0.00 0.00 0.00 71 1014.8
20260505182330 64 248 6.0 14.0 0.00 0.00 0.00 71 1014.8
20260505182159 64 284 5.0 11.0 0.00 0.00 0.00 70 1014.7
20260505181618 64 205 5.0 11.0 0.00 0.00 0.00 71 1014.7
20260505180830 63 236 5.0 13.0 0.00 0.00 0.00 72 1014.7
20260505180330 63 257 4.0 13.0 0.00 0.00 0.00 72 1014.6
20260505175830 63 207 5.0 11.0 0.00 0.00 0.00 70 1014.6
20260505175331 64 211 5.0 10.0 0.00 0.00 0.00 69 1014.6
20260505174829 64 202 5.0 10.0 0.00 0.00 0.00 70 1014.5
20260505174329 64 221 5.0 10.0 0.00 0.00 0.00 72 1014.4
20260505173830 64 0 5.0 11.0 0.00 0.00 0.00 72 1014.5
20260505173330 64 311 5.0 11.0 0.00 0.00 0.00 72 1014.4
20260505172831 64 0 5.0 10.0 0.00 0.00 0.00 73 1014.2
20260505172331 64 254 4.0 9.0 0.00 0.00 0.00 73 1014.3
20260505171835 64 0 4.0 9.0 0.00 0.00 0.00 72 1014.4
20260505171329 64 207 4.0 10.0 0.00 0.00 0.00 73 1014.2
20260505170829 64 248 4.0 10.0 0.00 0.00 0.00 72 1014.2
20260505170330 64 241 4.0 9.0 0.00 0.00 0.00 73 1014.1
20260505165829 63 221 4.0 9.0 0.00 0.00 0.00 73 1014.1
20260505165332 63 217 4.0 9.0 0.00 0.00 0.00 74 1014.0
20260505165235 64 270 3.0 11.0 0.00 0.00 0.00 74 1014.0
20260505164330 63 234 3.0 11.0 0.00 0.00 0.00 75 1014.0
20260505163840 63 271 4.0 9.0 0.00 0.00 0.00 73 1013.9
20260505163329 63 206 4.0 9.0 0.00 0.00 0.00 74 1013.8
20260505162835 63 0 3.0 10.0 0.00 0.00 0.00 74 1013.6
20260505162727 63 251 3.0 10.0 0.00 0.00 0.00 75 1013.5
20260505162203 62 0 3.0 9.0 0.00 0.00 0.00 75 1013.6
20260505161333 62 220 3.0 8.0 0.00 0.00 0.00 75 1013.5
20260505160828 62 230 3.0 7.0 0.00 0.00 0.00 75 1013.7
20260505160329 62 0 3.0 8.0 0.00 0.00 0.00 77 1013.7
20260505153325 61 275 2.0 5.0 0.00 0.00 0.00 77 1013.5
20260505152827 61 229 2.0 5.0 0.00 0.00 0.00 77 1013.4
20260505152326 61 247 2.0 5.0 0.00 0.00 0.00 76 1013.4
20260505151828 61 218 2.0 5.0 0.00 0.00 0.00 77 1013.2
20260505151326 60 214 2.0 5.0 0.00 0.00 0.00 77 1013.3
20260505150825 60 199 2.0 5.0 0.00 0.00 0.00 78 1013.3
20260505150327 60 234 2.0 4.0 0.00 0.00 0.00 79 1013.3